Weather History for Lamoni, IA

Change the Weather History Date:

Tuesday, May 8, 2012

  Actual Average Record
Temperature  
Mean Temperature 58 °F 59 °F  
Max Temperature 68 °F 69 °F 89 °F (1963)
Min Temperature 48 °F 48 °F 33 °F (1980)
Degree Days  
Heating Degree Days 7 7  
Month to date heating degree days 10 64  
Since 1 July heating degree days 4766 5959  
Cooling Degree Days 0 1  
Month to date cooling degree days 33 4  
Year to date cooling degree days 83 11  
Growing Degree Days 7 (Base 50)    
Moisture  
Dew Point 42 °F    
Average Humidity 59    
Maximum Humidity 80    
Minimum Humidity 37    
Precipitation  
Precipitation 0.00 in 0.16 in 1.95 in (1965)
Month to date precipitation 2.44 1.35  
Year to date precipitation 12.09  
Sea Level Pressure  
Sea Level Pressure 30.01 in    
Wind  
Wind Speed 12 mph (WNW)    
Max Wind Speed 24 mph    
Max Gust Speed 31 mph    
Visibility 10 miles    
Events      
T = Trace of Precipitation, MM = Missing Value Source: NWS Daily Summary

Daily Weather History Graph

Daily Weather History Graph

Search for Another Location

Airport:

Trip Planner

Search our weather history database for the weather conditions in past years. The results will help you decide how hot, cold, wet, or windy it might be!

Date:

Astronomy

May. 08, 2012 Rise Set
Actual Time 6:05 AM CDT 8:19 PM CDT
Civil Twilight 5:35 AM CDT 8:49 PM CDT
Nautical Twilight 4:57 AM CDT 9:27 PM CDT
Astronomical Twilight 4:16 AM CDT 10:08 PM CDT
Moon 11:30 PM CDT (5/8) 8:13 AM CDT (5/8)
Length of Visible Light 15h 14m
Length of Day
14h 13m
Waning Gibbous, 90% of the Moon is Illuminated
May 8
Waning Gibbous
May 12
Last Quarter
May 20
New
May 28
First Quarter
Jun 4
Full

Hourly Weather History & Observations

Time (CDT) Temp. Dew Point Humidity Pressure Visibility Wind Dir Wind Speed Gust Speed Precip Events Conditions
12:53 AM 57.0 °F 46.9 °F 69% 30.02 in 10.0 mi NW 5.8 mph - N/A   Overcast
1:53 AM 57.9 °F 43.0 °F 58% 30.00 in 10.0 mi NNW 11.5 mph - N/A   Mostly Cloudy
2:53 AM 53.1 °F 41.0 °F 64% 29.99 in 10.0 mi NW 6.9 mph - N/A   Clear
3:53 AM 51.1 °F 42.1 °F 71% 30.00 in 10.0 mi WNW 4.6 mph - N/A   Clear
4:53 AM 50.0 °F 43.0 °F 77% 30.02 in 10.0 mi West 5.8 mph - N/A   Clear
5:53 AM 48.9 °F 43.0 °F 80% 30.04 in 10.0 mi West 5.8 mph - N/A   Clear
6:53 AM 50.0 °F 43.0 °F 77% 30.04 in 10.0 mi West 6.9 mph - N/A   Clear
7:53 AM 55.0 °F 44.1 °F 67% 30.04 in 10.0 mi West 9.2 mph - N/A   Clear
8:53 AM 59.0 °F 44.1 °F 58% 30.04 in 10.0 mi WNW 12.7 mph - N/A   Clear
9:53 AM 62.1 °F 43.0 °F 50% 30.04 in 10.0 mi WNW 17.3 mph 20.7 mph N/A   Clear
10:53 AM 64.0 °F 43.0 °F 46% 30.02 in 10.0 mi WNW 16.1 mph 21.9 mph N/A   Clear
11:53 AM 64.9 °F 39.9 °F 40% 30.02 in 10.0 mi WNW 21.9 mph 28.8 mph N/A   Clear
12:53 PM 66.0 °F 42.1 °F 42% 30.03 in 10.0 mi WNW 18.4 mph 31.1 mph N/A   Clear
1:53 PM 64.9 °F 43.0 °F 45% 30.02 in 10.0 mi NW 16.1 mph 26.5 mph N/A   Mostly Cloudy
2:53 PM 66.9 °F 42.1 °F 40% 30.00 in 10.0 mi West 19.6 mph 26.5 mph N/A   Scattered Clouds
3:53 PM 66.9 °F 42.1 °F 40% 29.98 in 10.0 mi WNW 20.7 mph 25.3 mph N/A   Mostly Cloudy
4:53 PM 66.0 °F 39.9 °F 38% 29.98 in 10.0 mi WNW 17.3 mph 25.3 mph N/A   Partly Cloudy
5:53 PM 64.0 °F 42.1 °F 45% 29.97 in 10.0 mi WNW 17.3 mph 21.9 mph N/A   Overcast
6:53 PM 64.0 °F 41.0 °F 43% 29.97 in 10.0 mi WNW 13.8 mph 23.0 mph N/A   Overcast
7:53 PM 59.0 °F 42.1 °F 53% 29.99 in 10.0 mi NW 8.1 mph - N/A   Scattered Clouds
8:53 PM 57.9 °F 41.0 °F 53% 30.00 in 10.0 mi NNW 9.2 mph - N/A   Overcast
9:53 PM 55.9 °F 41.0 °F 57% 30.01 in 10.0 mi NNW 6.9 mph - N/A   Mostly Cloudy
10:53 PM 52.0 °F 42.1 °F 69% 30.03 in 10.0 mi North 9.2 mph - N/A   Clear
11:53 PM 51.1 °F 42.1 °F 71% 30.04 in 10.0 mi NNW 10.4 mph - N/A   Clear